• Currently

    Reported at Minneapolis, Minneapolis-St. Paul International Airport, MN
    6:53 PM CST WED APR 26 2017
  • 39°F4°C
  • Drizzle
    Drizzle
  • Feels Like:33°F0°CDew Point:32°F0°CHumidity:75% Winds:N 12 mph 19 kph
    Pressure:29.56 in1001 hPaVisibility:10.00 miles16090.00 meters
Time Weather Temp Dew Point
Humidity Winds Visibility Pressure Precipitation
1 hr 24 hr
Wednesday, April 26
23:53 23:53 Cloudy Cloudy 51°F11°C 48°F9°C 89% NNE 12 mphNNE 19 kph 10.0 miles16.1 km 29.53 in1000 hPa 0.00 in0.00 mm --
22:53 22:53 Cloudy Cloudy 52°F11°C 49°F9°C 89% NNE 12 mphNNE 19 kph 10.0 miles16.1 km 29.53 in1000 hPa 0.00 in0.03 mm --
21:53 21:53 Cloudy With Light Rain Cloudy With Light Rain 54°F12°C 51°F11°C 90% NNE 10 mphNNE 17 kph 5.0 miles8.0 km 29.56 in1001 hPa 0.04 in25.81 mm --
21:33 21:33 Cloudy With Light Rain Cloudy With Light Rain 54°F12°C 51°F11°C 90% NE 9 mphNE 15 kph 5.0 miles8.0 km 29.56 in1001 hPa 0.03 in19.35 mm --
21:03 21:03 Cloudy With Light Rain Cloudy With Light Rain 54°F12°C 52°F11°C 94% NE 8 mphNE 13 kph 5.0 miles8.0 km 29.56 in1001 hPa 0.00 in0.00 mm --
20:53 20:53 Cloudy With Light Rain Cloudy With Light Rain 54°F12°C 51°F11°C 90% NE 8 mphNE 13 kph 5.0 miles8.0 km 29.56 in1001 hPa 0.05 in32.26 mm --
20:28 20:28 Cloudy With Light Rain Cloudy With Light Rain 54°F12°C 51°F11°C 90% NNE 8 mphNNE 13 kph 4.0 miles6.4 km 29.56 in1001 hPa 0.05 in32.26 mm --
20:23 20:23 Cloudy With Light Rain Cloudy With Light Rain 54°F12°C 51°F11°C 90% NNE 9 mphNNE 15 kph 4.0 miles6.4 km 29.56 in1001 hPa 0.04 in25.81 mm --
19:53 19:53 Cloudy With Light Rain Cloudy With Light Rain 54°F12°C 52°F11°C 93% N 9 mphN 15 kph 3.0 miles4.8 km 29.56 in1001 hPa 0.20 in129.03 mm --
19:45 19:45 Cloudy With Rain Cloudy With Rain 54°F12°C 52°F11°C 93% NNE 5 mphNNE 7 kph 2.0 miles3.2 km 29.56 in1001 hPa 0.18 in116.13 mm --
19:29 19:29 Cloudy With Rain Cloudy With Rain 54°F12°C 51°F11°C 90% N 8 mphN 13 kph 1.5 miles2.4 km 29.56 in1001 hPa 0.13 in83.87 mm --
19:21 19:21 Cloudy With Rain Cloudy With Rain 54°F12°C 51°F11°C 90% N 6 mphN 9 kph 1.8 miles2.8 km 29.56 in1001 hPa 0.09 in58.06 mm --
19:12 19:12 Cloudy With Rain Cloudy With Rain 54°F12°C 52°F11°C 94% NNE 6 mphNNE 9 kph 2.0 miles3.2 km 29.56 in1001 hPa 0.00 in0.00 mm --
18:53 18:53 Cloudy With Light Rain Cloudy With Light Rain 54°F12°C 51°F11°C 90% N 3 mphN 6 kph 2.5 miles4.0 km 29.56 in1001 hPa 0.05 in32.26 mm --
18:35 18:35 Cloudy With Rain Cloudy With Rain 54°F12°C 51°F11°C 90% CalmCalm 2.5 miles4.0 km 29.56 in1001 hPa 0.02 in12.90 mm --
17:53 17:53 Cloudy With Light Rain Cloudy With Light Rain 54°F12°C 49°F9°C 83% ENE 6 mphENE 9 kph 4.0 miles6.4 km 29.56 in1001 hPa 0.01 in6.45 mm --
16:53 16:53 Cloudy With Light Rain Cloudy With Light Rain 53°F12°C 49°F9°C 86% ENE 6 mphENE 9 kph 5.0 miles8.0 km 29.53 in1000 hPa 0.06 in38.71 mm --
15:53 15:53 Cloudy With Light Rain Cloudy With Light Rain 53°F12°C 47°F8°C 80% SSW 3 mphSSW 6 kph 6.0 miles9.7 km 29.56 in1001 hPa 0.04 in25.81 mm --
14:53 14:53 Cloudy With Light Rain Cloudy With Light Rain 53°F12°C 47°F8°C 80% N 6 mphN 9 kph 8.0 miles12.9 km 29.56 in1001 hPa 0.00 in0.03 mm --
13:53 13:53 Cloudy Cloudy 56°F13°C 45°F7°C 67% SSW 9 mphSSW 15 kph 10.0 miles16.1 km 29.56 in1001 hPa 0.00 in0.00 mm --
12:53 12:53 Cloudy Cloudy 56°F13°C 46°F8°C 70% W 6 mphW 9 kph 10.0 miles16.1 km 29.56 in1001 hPa 0.00 in0.00 mm --
11:53 11:53 Cloudy Cloudy 58°F14°C 45°F7°C 62% WSW 8 mphWSW 13 kph 10.0 miles16.1 km 29.56 in1001 hPa 0.00 in0.00 mm --
10:53 10:53 Cloudy Cloudy 57°F14°C 46°F8°C 67% SSW 6 mphSSW 9 kph 10.0 miles16.1 km 29.56 in1001 hPa 0.00 in0.00 mm --
09:53 09:53 Mostly Cloudy Mostly Cloudy 53°F12°C 45°F7°C 74% SSW 7 mphSSW 11 kph 9.0 miles14.5 km 29.53 in1000 hPa 0.00 in0.00 mm --
08:53 08:53 Mostly Cloudy Mostly Cloudy 53°F12°C 45°F7°C 74% SW 8 mphSW 13 kph 9.0 miles14.5 km 29.53 in1000 hPa 0.00 in0.00 mm --
07:53 07:53 Mostly Cloudy Mostly Cloudy 55°F13°C 45°F7°C 69% WSW 9 mphWSW 15 kph 10.0 miles16.1 km 29.53 in1000 hPa 0.00 in0.00 mm --
06:53 06:53 Mostly Cloudy Mostly Cloudy 57°F14°C 38°F3°C 49% SSE 6 mphSSE 9 kph 10.0 miles16.1 km 29.5 in999 hPa 0.00 in0.00 mm --
05:53 05:53 Mostly Cloudy Mostly Cloudy 58°F14°C 36°F2°C 44% SE 8 mphSE 13 kph 10.0 miles16.1 km 29.5 in999 hPa 0.00 in0.00 mm --
04:53 04:53 Cloudy Cloudy 60°F16°C 36°F2°C 41% SSE 7 mphSSE 11 kph 10.0 miles16.1 km 29.5 in999 hPa 0.00 in0.00 mm --
03:53 03:53 Cloudy Cloudy 61°F16°C 35°F2°C 38% SSE 8 mphSSE 13 kph 10.0 miles16.1 km 29.5 in999 hPa 0.00 in0.00 mm --
02:53 02:53 Cloudy Cloudy 61°F16°C 35°F2°C 38% SSE 10 mphSSE 17 kph 10.0 miles16.1 km 29.5 in999 hPa 0.00 in0.00 mm --
01:53 01:53 Cloudy Cloudy 61°F16°C 37°F3°C 41% SE 10 mphSE 17 kph 10.0 miles16.1 km 29.53 in1000 hPa 0.00 in0.00 mm --
00:53 00:53 Cloudy Cloudy 58°F14°C 47°F8°C 67% ESE 6 mphESE 9 kph 10.0 miles16.1 km 29.53 in1000 hPa 0.00 in0.03 mm --